WAT3284 KTPA-KIAH

Flight info

Callsign WAT3284
Flight time 2h 3m
Altitude 32000
Route DORMR3 FROOT BUNNZ Y290 LEV SOULL1
Aircraft B738/M-SDE2E3FGHIRWXY/LB1

Departure

Time 2026-05-05 10:48
Airport Tampa International Airport (KTPA)

Arrival

Time 2026-05-05 12:52
Airport George Bush Intercontinental Airport (KIAH)
Time Latitude Longitude Altitude Speed Heading
2026-05-05 10:24 27.97578 -82.53172 40 ft 0 kts 291°
2026-05-05 10:36 27.97574 -82.53162 40 ft 3 kts 288°
2026-05-05 10:37 27.97569 -82.53140 40 ft 3 kts 278°
2026-05-05 10:37 27.97567 -82.53118 35 ft 3 kts 266°
2026-05-05 10:37 27.97570 -82.53096 37 ft 3 kts 249°
2026-05-05 10:37 27.97579 -82.53077 37 ft 3 kts 221°
2026-05-05 10:38 27.97592 -82.53067 39 ft 2 kts 184°
2026-05-05 10:38 27.97595 -82.53067 36 ft 1 kts 181°
2026-05-05 10:42 27.97591 -82.53067 40 ft 2 kts 181°
2026-05-05 10:43 27.97553 -82.53056 40 ft 9 kts 142°
2026-05-05 10:43 27.97499 -82.52991 39 ft 14 kts 165°
2026-05-05 10:43 27.97387 -82.52992 37 ft 18 kts 181°
2026-05-05 10:43 27.97277 -82.52995 38 ft 15 kts 181°
2026-05-05 10:44 27.97176 -82.52998 37 ft 13 kts 181°
2026-05-05 10:44 27.97076 -82.53002 36 ft 16 kts 182°
2026-05-05 10:44 27.96956 -82.53006 35 ft 18 kts 182°
2026-05-05 10:44 27.96831 -82.53010 37 ft 18 kts 181°
2026-05-05 10:45 27.96710 -82.53014 38 ft 17 kts 181°
2026-05-05 10:45 27.96592 -82.53018 39 ft 17 kts 181°
2026-05-05 10:45 27.96515 -82.53021 41 ft 9 kts 181°
2026-05-05 10:45 27.96458 -82.53006 42 ft 6 kts 135°
2026-05-05 10:46 27.96456 -82.53003 42 ft 0 kts 129°
2026-05-05 10:46 27.96456 -82.53002 43 ft 3 kts 128°
2026-05-05 10:46 27.96442 -82.52936 42 ft 11 kts 90°
2026-05-05 10:47 27.96495 -82.52897 41 ft 10 kts
2026-05-05 10:47 27.96507 -82.52896 40 ft 1 kts
2026-05-05 10:47 27.96512 -82.52896 40 ft 1 kts
2026-05-05 10:47 27.96520 -82.52896 40 ft 7 kts
2026-05-05 10:48 27.96799 -82.52886 40 ft 79 kts
2026-05-05 10:48 27.97598 -82.52859 39 ft 148 kts
2026-05-05 10:48 27.98828 -82.52815 139 ft 198 kts
2026-05-05 10:48 28.00265 -82.52772 641 ft 219 kts
2026-05-05 10:49 28.01898 -82.52725 1004 ft 246 kts
2026-05-05 10:49 28.03694 -82.52699 1504 ft 271 kts
2026-05-05 10:49 28.05614 -82.52943 1944 ft 282 kts 340°
2026-05-05 10:49 28.07139 -82.54260 2439 ft 277 kts 304°
2026-05-05 10:50 28.07744 -82.56268 2931 ft 269 kts 268°
2026-05-05 10:50 28.07323 -82.58290 3473 ft 264 kts 244°
2026-05-05 10:50 28.06390 -82.60074 3948 ft 264 kts 228°
2026-05-05 10:50 28.05137 -82.61578 4453 ft 262 kts 224°
2026-05-05 10:51 28.03836 -82.63029 4962 ft 262 kts 224°
2026-05-05 10:51 28.02529 -82.64478 5454 ft 264 kts 224°
2026-05-05 10:51 28.01210 -82.65936 5949 ft 266 kts 224°
2026-05-05 10:51 27.99889 -82.67403 6456 ft 267 kts 225°
2026-05-05 10:52 27.98566 -82.68880 6934 ft 268 kts 225°
2026-05-05 10:52 27.97241 -82.70365 7406 ft 269 kts 226°
2026-05-05 10:52 27.95908 -82.71863 7896 ft 271 kts 226°
2026-05-05 10:52 27.94566 -82.73373 8389 ft 273 kts 226°
2026-05-05 10:53 27.93218 -82.74892 8897 ft 275 kts 227°
2026-05-05 10:53 27.91861 -82.76421 9403 ft 276 kts 227°
2026-05-05 10:53 27.90510 -82.77944 9913 ft 280 kts 228°
2026-05-05 10:53 27.89136 -82.79493 9967 ft 277 kts 228°
2026-05-05 10:54 27.87752 -82.81056 10011 ft 292 kts 228°
2026-05-05 10:54 27.86247 -82.82759 10022 ft 320 kts 228°
2026-05-05 10:54 27.84630 -82.84585 10242 ft 339 kts 228°
2026-05-05 10:54 27.82909 -82.86525 10374 ft 358 kts 227°
2026-05-05 10:55 27.81102 -82.88558 10550 ft 374 kts 227°
2026-05-05 10:55 27.79238 -82.90652 10964 ft 380 kts 227°
2026-05-05 10:55 27.77356 -82.92763 11511 ft 383 kts 227°
2026-05-05 10:55 27.75463 -82.94888 12055 ft 385 kts 227°
2026-05-05 10:56 27.73555 -82.97030 12557 ft 389 kts 227°
2026-05-05 10:56 27.71626 -82.99195 13048 ft 392 kts 227°
2026-05-05 10:56 27.69747 -83.01304 13527 ft 395 kts 227°
2026-05-05 10:56 27.67939 -83.03637 13972 ft 395 kts 239°
2026-05-05 10:57 27.66695 -83.06379 14415 ft 393 kts 251°
2026-05-05 10:57 27.65981 -83.09346 14883 ft 392 kts 263°
2026-05-05 10:57 27.65709 -83.12402 15362 ft 392 kts 266°
2026-05-05 10:57 27.65549 -83.14434 15654 ft 394 kts 266°
2026-05-05 10:58 27.65299 -83.17516 16075 ft 396 kts 266°
2026-05-05 10:58 27.65030 -83.20615 16499 ft 398 kts 266°
2026-05-05 10:58 27.64745 -83.23730 16930 ft 400 kts 266°
2026-05-05 10:58 27.64454 -83.26855 17359 ft 402 kts 266°
2026-05-05 10:59 27.64160 -83.29996 17774 ft 404 kts 266°
2026-05-05 10:59 27.63864 -83.33154 18170 ft 406 kts 266°
2026-05-05 10:59 27.63566 -83.36324 18528 ft 408 kts 266°
2026-05-05 10:59 27.63267 -83.39510 18876 ft 409 kts 266°
2026-05-05 11:00 27.62966 -83.42701 19234 ft 410 kts 266°
2026-05-05 11:00 27.62664 -83.45900 19592 ft 411 kts 267°
2026-05-05 11:00 27.62360 -83.49111 19929 ft 412 kts 267°
2026-05-05 11:00 27.62055 -83.52324 20255 ft 413 kts 267°
2026-05-05 11:01 27.61749 -83.55549 20571 ft 415 kts 267°
2026-05-05 11:01 27.61440 -83.58791 20884 ft 416 kts 268°
2026-05-05 11:01 27.61129 -83.62041 21188 ft 417 kts 268°
2026-05-05 11:01 27.60817 -83.65302 21485 ft 419 kts 268°
2026-05-05 11:02 27.60503 -83.68567 21772 ft 420 kts 268°
2026-05-05 11:02 27.60187 -83.71845 22062 ft 421 kts 268°
2026-05-05 11:02 27.59870 -83.75132 22335 ft 422 kts 268°
2026-05-05 11:02 27.59551 -83.78428 22596 ft 424 kts 268°
2026-05-05 11:03 27.59230 -83.81732 22858 ft 425 kts 268°
2026-05-05 11:03 27.58908 -83.85049 23107 ft 426 kts 268°
2026-05-05 11:03 27.58584 -83.88373 23351 ft 427 kts 268°
2026-05-05 11:03 27.58258 -83.91708 23575 ft 429 kts 268°
2026-05-05 11:04 27.57930 -83.95049 23788 ft 429 kts 268°
2026-05-05 11:04 27.57601 -83.98392 23991 ft 430 kts 269°
2026-05-05 11:04 27.57281 -84.01640 24175 ft 431 kts 269°
2026-05-05 11:04 27.56950 -84.05001 24337 ft 432 kts 269°
2026-05-05 11:05 27.56617 -84.08373 24511 ft 433 kts 269°
2026-05-05 11:05 27.56281 -84.11752 24688 ft 434 kts 269°
2026-05-05 11:05 27.56013 -84.15139 24854 ft 433 kts 273°
2026-05-05 11:05 27.56105 -84.18515 25023 ft 430 kts 279°
2026-05-05 11:06 27.56601 -84.21819 25195 ft 428 kts 284°
2026-05-05 11:06 27.57171 -84.25113 25362 ft 429 kts 284°
2026-05-05 11:06 27.57729 -84.28418 25517 ft 430 kts 284°
2026-05-05 11:06 27.58279 -84.31736 25654 ft 431 kts 284°
2026-05-05 11:07 27.58823 -84.35063 25812 ft 432 kts 283°
2026-05-05 11:07 27.59364 -84.38400 25962 ft 433 kts 283°
2026-05-05 11:07 27.59903 -84.41740 26137 ft 433 kts 283°
2026-05-05 11:07 27.60440 -84.45073 26365 ft 432 kts 283°
2026-05-05 11:08 27.60968 -84.48358 26607 ft 430 kts 284°
2026-05-05 11:08 27.61500 -84.51674 26839 ft 430 kts 284°
2026-05-05 11:08 27.62033 -84.54990 27056 ft 429 kts 284°
2026-05-05 11:08 27.62562 -84.58296 27291 ft 429 kts 284°
2026-05-05 11:09 27.63091 -84.61599 27545 ft 428 kts 284°
2026-05-05 11:09 27.63618 -84.64895 27790 ft 427 kts 284°
2026-05-05 11:09 27.64144 -84.68190 28000 ft 427 kts 284°
2026-05-05 11:09 27.64670 -84.71491 28133 ft 429 kts 284°
2026-05-05 11:10 27.65198 -84.74807 28309 ft 429 kts 284°
2026-05-05 11:10 27.65723 -84.78113 28592 ft 428 kts 284°
2026-05-05 11:10 27.66245 -84.81409 28902 ft 426 kts 284°
2026-05-05 11:10 27.66764 -84.84690 29190 ft 425 kts 284°
2026-05-05 11:11 27.67282 -84.87966 29443 ft 424 kts 284°
2026-05-05 11:11 27.67799 -84.91245 29698 ft 424 kts 284°
2026-05-05 11:11 27.68314 -84.94513 29987 ft 423 kts 284°
2026-05-05 11:11 27.68827 -84.97775 30252 ft 422 kts 284°
2026-05-05 11:12 27.69322 -85.00924 30506 ft 420 kts 284°
2026-05-05 11:12 27.69829 -85.04158 30805 ft 418 kts 285°
2026-05-05 11:12 27.70333 -85.07379 31036 ft 417 kts 285°
2026-05-05 11:12 27.70838 -85.10606 31230 ft 417 kts 285°
2026-05-05 11:13 27.71341 -85.13829 31475 ft 416 kts 285°
2026-05-05 11:13 27.71840 -85.17032 31785 ft 414 kts 285°
2026-05-05 11:13 27.72336 -85.20221 32106 ft 411 kts 285°
2026-05-05 11:13 27.72828 -85.23388 32399 ft 409 kts 285°
2026-05-05 11:14 27.73319 -85.26550 32678 ft 408 kts 285°
2026-05-05 11:14 27.73807 -85.29699 32954 ft 407 kts 285°
2026-05-05 11:14 27.74323 -85.32830 33246 ft 404 kts 286°
2026-05-05 11:14 27.74900 -85.35921 33541 ft 401 kts 287°
2026-05-05 11:15 27.75499 -85.38990 33817 ft 400 kts 287°
2026-05-05 11:15 27.76101 -85.42047 34080 ft 398 kts 287°
2026-05-05 11:15 27.76699 -85.45100 34296 ft 397 kts 287°
2026-05-05 11:15 27.77289 -85.48143 34499 ft 397 kts 287°
2026-05-05 11:16 27.77873 -85.51183 34713 ft 396 kts 287°
2026-05-05 11:16 27.78452 -85.54216 34912 ft 395 kts 287°
2026-05-05 11:16 27.79028 -85.57246 35113 ft 394 kts 287°
2026-05-05 11:16 27.79602 -85.60277 35271 ft 395 kts 287°
2026-05-05 11:17 27.80174 -85.63304 35429 ft 394 kts 287°
2026-05-05 11:17 27.80745 -85.66330 35615 ft 393 kts 287°
2026-05-05 11:17 27.81305 -85.69308 35806 ft 392 kts 287°
2026-05-05 11:17 27.81871 -85.72319 35991 ft 392 kts 287°
2026-05-05 11:18 27.82439 -85.75335 36007 ft 394 kts 287°
2026-05-05 11:18 27.83575 -85.81387 36026 ft 393 kts 287°
2026-05-05 11:19 27.84701 -85.87411 36025 ft 391 kts 287°
2026-05-05 11:19 27.85821 -85.93415 36030 ft 390 kts 287°
2026-05-05 11:20 27.86938 -85.99411 36021 ft 390 kts 287°
2026-05-05 11:20 27.88033 -86.05308 36023 ft 389 kts 287°
2026-05-05 11:21 27.89143 -86.11300 36025 ft 390 kts 287°
2026-05-05 11:21 27.90251 -86.17300 36027 ft 390 kts 287°
2026-05-05 11:22 27.91359 -86.23309 36019 ft 391 kts 287°
2026-05-05 11:22 27.92466 -86.29331 36024 ft 392 kts 287°
2026-05-05 11:23 27.93574 -86.35376 36022 ft 393 kts 287°
2026-05-05 11:23 27.94682 -86.41434 36026 ft 394 kts 287°
2026-05-05 11:24 27.95788 -86.47502 36024 ft 394 kts 287°
2026-05-05 11:24 27.96894 -86.53580 36021 ft 395 kts 287°
2026-05-05 11:25 27.97998 -86.59665 36028 ft 395 kts 286°
2026-05-05 11:25 27.99098 -86.65746 36024 ft 395 kts 286°
2026-05-05 11:26 28.00196 -86.71828 36020 ft 394 kts 286°
2026-05-05 11:26 28.01404 -86.77814 36019 ft 390 kts 292°
2026-05-05 11:27 28.03151 -86.83625 36035 ft 390 kts 292°
2026-05-05 11:27 28.04901 -86.89437 36025 ft 390 kts 292°
2026-05-05 11:28 28.06635 -86.95244 36002 ft 389 kts 292°
2026-05-05 11:28 28.08332 -87.00961 36017 ft 389 kts 292°
2026-05-05 11:29 28.10049 -87.06762 36026 ft 388 kts 292°
2026-05-05 11:29 28.11761 -87.12561 36020 ft 388 kts 292°
2026-05-05 11:30 28.13472 -87.18363 36022 ft 388 kts 292°
2026-05-05 11:30 28.15181 -87.24170 36026 ft 388 kts 292°
2026-05-05 11:31 28.16887 -87.29977 36023 ft 389 kts 292°
2026-05-05 11:31 28.18592 -87.35790 36016 ft 389 kts 292°
2026-05-05 11:32 28.20295 -87.41606 36029 ft 389 kts 291°
2026-05-05 11:32 28.21998 -87.47431 36024 ft 389 kts 291°
2026-05-05 11:33 28.23697 -87.53256 36023 ft 389 kts 291°
2026-05-05 11:33 28.25397 -87.59092 36023 ft 390 kts 291°
2026-05-05 11:34 28.27094 -87.64932 36019 ft 390 kts 291°
2026-05-05 11:34 28.28790 -87.70776 36024 ft 390 kts 291°
2026-05-05 11:35 28.30484 -87.76622 36021 ft 390 kts 291°
2026-05-05 11:35 28.32175 -87.82471 36026 ft 390 kts 291°
2026-05-05 11:36 28.33855 -87.88292 36020 ft 391 kts 291°
2026-05-05 11:36 28.35545 -87.94158 36043 ft 391 kts 291°
2026-05-05 11:37 28.37230 -88.00017 36028 ft 391 kts 291°
2026-05-05 11:37 28.39037 -88.05727 36023 ft 388 kts 296°
2026-05-05 11:38 28.41243 -88.11314 36013 ft 388 kts 296°
2026-05-05 11:38 28.43474 -88.16888 36015 ft 387 kts 296°
2026-05-05 11:39 28.45683 -88.22467 36020 ft 387 kts 296°
2026-05-05 11:39 28.47879 -88.28060 36017 ft 387 kts 296°
2026-05-05 11:40 28.50068 -88.33657 36016 ft 388 kts 296°
2026-05-05 11:40 28.52254 -88.39259 36018 ft 388 kts 296°
2026-05-05 11:41 28.54440 -88.44869 36020 ft 388 kts 296°
2026-05-05 11:41 28.56622 -88.50478 36011 ft 388 kts 296°
2026-05-05 11:42 28.58803 -88.56090 36020 ft 388 kts 296°
2026-05-05 11:42 28.60984 -88.61713 36019 ft 388 kts 296°
2026-05-05 11:43 28.63164 -88.67339 36022 ft 389 kts 296°
2026-05-05 11:43 28.65342 -88.72969 36018 ft 389 kts 296°
2026-05-05 11:44 28.67518 -88.78603 36020 ft 389 kts 296°
2026-05-05 11:44 28.69676 -88.84199 36011 ft 388 kts 296°
2026-05-05 11:45 28.71844 -88.89829 36015 ft 388 kts 295°
2026-05-05 11:45 28.74006 -88.95452 36014 ft 387 kts 295°
2026-05-05 11:46 28.76132 -89.00989 36019 ft 387 kts 295°
2026-05-05 11:46 28.77939 -89.05700 36013 ft 387 kts 295°
2026-05-05 11:47 28.80094 -89.11330 36013 ft 387 kts 295°
2026-05-05 11:47 28.82246 -89.16957 36014 ft 387 kts 295°
2026-05-05 11:48 28.85455 -89.25366 36007 ft 387 kts 295°
2026-05-05 11:48 28.87603 -89.31005 36011 ft 388 kts 295°
2026-05-05 11:49 28.89749 -89.36648 36009 ft 388 kts 295°
2026-05-05 11:49 28.91894 -89.42296 36008 ft 388 kts 295°
2026-05-05 11:50 28.94040 -89.47955 36008 ft 388 kts 295°
2026-05-05 11:50 28.96184 -89.53619 36032 ft 388 kts 295°
2026-05-05 11:51 28.98325 -89.59281 36012 ft 388 kts 295°
2026-05-05 11:51 29.00456 -89.64928 36003 ft 387 kts 295°
2026-05-05 11:52 29.02585 -89.70576 36004 ft 387 kts 295°
2026-05-05 11:52 29.04711 -89.76225 36005 ft 386 kts 295°
2026-05-05 11:53 29.06830 -89.81865 36005 ft 386 kts 295°
2026-05-05 11:53 29.08948 -89.87510 36005 ft 386 kts 295°
2026-05-05 11:54 29.11061 -89.93153 36007 ft 386 kts 295°
2026-05-05 11:54 29.13174 -89.98803 36011 ft 386 kts 295°
2026-05-05 11:55 29.15253 -90.04368 35991 ft 387 kts 295°
2026-05-05 11:55 29.17269 -90.10074 35984 ft 389 kts 287°
2026-05-05 11:56 29.17836 -90.16277 35994 ft 395 kts 277°
2026-05-05 11:56 29.18017 -90.22571 35996 ft 396 kts 277°
2026-05-05 11:57 29.18202 -90.28864 35995 ft 396 kts 277°
2026-05-05 11:57 29.18410 -90.35152 35994 ft 396 kts 277°
2026-05-05 11:58 29.18629 -90.41443 35993 ft 395 kts 277°
2026-05-05 11:58 29.18847 -90.47685 35989 ft 395 kts 277°
2026-05-05 11:59 29.19065 -90.53973 35988 ft 395 kts 277°
2026-05-05 11:59 29.19281 -90.60299 35990 ft 395 kts 277°
2026-05-05 12:00 29.19492 -90.66583 35986 ft 395 kts 277°
2026-05-05 12:00 29.19701 -90.72865 35985 ft 395 kts 277°
2026-05-05 12:01 29.19905 -90.79111 35974 ft 395 kts 277°
2026-05-05 12:01 29.20108 -90.85396 35984 ft 396 kts 276°
2026-05-05 12:02 29.20308 -90.91694 35980 ft 396 kts 276°
2026-05-05 12:02 29.20505 -90.97997 35981 ft 396 kts 276°
2026-05-05 12:03 29.20696 -91.04203 35981 ft 397 kts 276°
2026-05-05 12:03 29.20888 -91.10516 35980 ft 397 kts 276°
2026-05-05 12:04 29.21076 -91.16831 35969 ft 397 kts 276°
2026-05-05 12:04 29.21262 -91.23148 35978 ft 397 kts 276°
2026-05-05 12:05 29.21445 -91.29467 35975 ft 397 kts 276°
2026-05-05 12:05 29.21625 -91.35790 35975 ft 398 kts 276°
2026-05-05 12:06 29.21802 -91.42115 35973 ft 398 kts 276°
2026-05-05 12:06 29.21976 -91.48447 35971 ft 398 kts 276°
2026-05-05 12:07 29.22148 -91.54775 35953 ft 398 kts 276°
2026-05-05 12:07 29.22316 -91.61103 35968 ft 398 kts 276°
2026-05-05 12:08 29.22481 -91.67439 35965 ft 398 kts 276°
2026-05-05 12:08 29.22644 -91.73777 35963 ft 398 kts 276°
2026-05-05 12:09 29.22802 -91.80074 35965 ft 398 kts 276°
2026-05-05 12:09 29.22959 -91.86415 35959 ft 399 kts 276°
2026-05-05 12:10 29.23113 -91.92755 35960 ft 398 kts 275°
2026-05-05 12:10 29.23263 -91.99096 35953 ft 398 kts 275°
2026-05-05 12:11 29.23408 -92.05332 35969 ft 398 kts 275°
2026-05-05 12:11 29.23553 -92.11659 35958 ft 397 kts 275°
2026-05-05 12:12 29.23694 -92.17974 35949 ft 396 kts 275°
2026-05-05 12:12 29.23832 -92.24270 35950 ft 395 kts 275°
2026-05-05 12:13 29.23966 -92.30558 35937 ft 395 kts 275°
2026-05-05 12:13 29.24098 -92.36838 35945 ft 394 kts 275°
2026-05-05 12:14 29.24227 -92.43115 35945 ft 394 kts 275°
2026-05-05 12:14 29.24432 -92.49378 35939 ft 393 kts 278°
2026-05-05 12:15 29.24927 -92.55603 35941 ft 392 kts 279°
2026-05-05 12:15 29.25449 -92.61829 35938 ft 393 kts 278°
2026-05-05 12:16 29.25939 -92.68020 35941 ft 393 kts 278°
2026-05-05 12:16 29.26416 -92.74254 35937 ft 393 kts 278°
2026-05-05 12:17 29.26886 -92.80488 35934 ft 393 kts 278°
2026-05-05 12:17 29.27353 -92.86717 35934 ft 392 kts 278°
2026-05-05 12:18 29.27817 -92.92944 35932 ft 392 kts 278°
2026-05-05 12:18 29.28280 -92.99172 35875 ft 393 kts 278°
2026-05-05 12:19 29.28506 -93.02226 35298 ft 399 kts 278°
2026-05-05 12:19 29.28747 -93.05376 34659 ft 397 kts 278°
2026-05-05 12:19 29.28993 -93.08533 34008 ft 398 kts 278°
2026-05-05 12:19 29.29241 -93.11699 33222 ft 400 kts 278°
2026-05-05 12:20 29.29489 -93.14878 32507 ft 401 kts 278°
2026-05-05 12:20 29.29737 -93.18068 31784 ft 403 kts 278°
2026-05-05 12:20 29.29985 -93.21270 31055 ft 405 kts 277°
2026-05-05 12:20 29.30233 -93.24493 30286 ft 408 kts 277°
2026-05-05 12:21 29.30482 -93.27741 29415 ft 411 kts 277°
2026-05-05 12:21 29.30731 -93.31011 28531 ft 413 kts 277°
2026-05-05 12:21 29.30978 -93.34275 27969 ft 408 kts 277°
2026-05-05 12:21 29.31221 -93.37501 27351 ft 404 kts 277°
2026-05-05 12:22 29.31461 -93.40691 26782 ft 400 kts 277°
2026-05-05 12:22 29.31697 -93.43844 26223 ft 395 kts 277°
2026-05-05 12:22 29.31931 -93.46968 25673 ft 391 kts 277°
2026-05-05 12:22 29.32162 -93.50053 25126 ft 387 kts 277°
2026-05-05 12:23 29.32390 -93.53113 24588 ft 383 kts 277°
2026-05-05 12:23 29.32615 -93.56137 24059 ft 380 kts 277°
2026-05-05 12:23 29.32837 -93.59136 23522 ft 376 kts 277°
2026-05-05 12:23 29.33057 -93.62111 22889 ft 373 kts 277°
2026-05-05 12:24 29.33275 -93.65058 22314 ft 369 kts 277°
2026-05-05 12:24 29.33488 -93.67966 21786 ft 365 kts 277°
2026-05-05 12:24 29.33700 -93.70856 21245 ft 362 kts 277°
2026-05-05 12:24 29.33908 -93.73715 20721 ft 358 kts 277°
2026-05-05 12:25 29.34115 -93.76549 20216 ft 356 kts 277°
2026-05-05 12:25 29.34320 -93.79368 19708 ft 354 kts 277°
2026-05-05 12:25 29.34523 -93.82168 19193 ft 352 kts 277°
2026-05-05 12:25 29.34725 -93.84962 18687 ft 351 kts 277°
2026-05-05 12:26 29.34926 -93.87757 18156 ft 353 kts 277°
2026-05-05 12:26 29.35114 -93.90570 17470 ft 357 kts 276°
2026-05-05 12:26 29.35274 -93.93417 16932 ft 360 kts 275°
2026-05-05 12:26 29.35427 -93.96297 16399 ft 364 kts 275°
2026-05-05 12:27 29.35580 -93.99188 15879 ft 363 kts 275°
2026-05-05 12:27 29.35727 -94.01967 15386 ft 360 kts 275°
2026-05-05 12:27 29.35880 -94.04823 14879 ft 358 kts 275°
2026-05-05 12:27 29.36032 -94.07655 14522 ft 352 kts 274°
2026-05-05 12:28 29.36180 -94.10407 14321 ft 341 kts 274°
2026-05-05 12:28 29.36322 -94.13043 14178 ft 331 kts 274°
2026-05-05 12:28 29.36461 -94.15633 14028 ft 321 kts 274°
2026-05-05 12:28 29.36596 -94.18144 13898 ft 311 kts 274°
2026-05-05 12:29 29.36727 -94.20588 13763 ft 302 kts 274°
2026-05-05 12:29 29.36852 -94.22955 13632 ft 294 kts 274°
2026-05-05 12:29 29.36981 -94.25263 13499 ft 286 kts 275°
2026-05-05 12:29 29.37127 -94.27523 13379 ft 283 kts 275°
2026-05-05 12:30 29.37277 -94.29799 13275 ft 290 kts 275°
2026-05-05 12:30 29.37427 -94.32125 13163 ft 295 kts 275°
2026-05-05 12:30 29.37577 -94.34465 13027 ft 293 kts 275°
2026-05-05 12:30 29.37874 -94.36743 12911 ft 286 kts 288°
2026-05-05 12:31 29.38754 -94.38753 12901 ft 280 kts 303°
2026-05-05 12:31 29.39888 -94.40537 12891 ft 273 kts 305°
2026-05-05 12:31 29.41012 -94.42233 12883 ft 261 kts 305°
2026-05-05 12:31 29.42086 -94.43854 12879 ft 250 kts 304°
2026-05-05 12:32 29.43109 -94.45409 12872 ft 238 kts 304°
2026-05-05 12:32 29.44081 -94.46895 12840 ft 230 kts 304°
2026-05-05 12:32 29.45053 -94.48389 12490 ft 239 kts 304°
2026-05-05 12:32 29.46057 -94.49939 12060 ft 245 kts 304°
2026-05-05 12:33 29.47086 -94.51527 11653 ft 251 kts 304°
2026-05-05 12:33 29.47778 -94.52597 11378 ft 254 kts 304°
2026-05-05 12:33 29.48845 -94.54247 10954 ft 259 kts 304°
2026-05-05 12:33 29.49916 -94.55904 10540 ft 258 kts 304°
2026-05-05 12:34 29.51031 -94.57500 10188 ft 257 kts 316°
2026-05-05 12:34 29.52564 -94.58552 9838 ft 258 kts 334°
2026-05-05 12:34 29.54238 -94.59277 9465 ft 256 kts 338°
2026-05-05 12:34 29.55921 -94.59932 9090 ft 254 kts 338°
2026-05-05 12:35 29.57586 -94.60571 8745 ft 250 kts 338°
2026-05-05 12:35 29.59214 -94.61199 8382 ft 243 kts 338°
2026-05-05 12:35 29.60799 -94.61816 8005 ft 238 kts 337°
2026-05-05 12:35 29.62330 -94.62415 7806 ft 227 kts 337°
2026-05-05 12:36 29.63801 -94.62994 7672 ft 220 kts 336°
2026-05-05 12:36 29.65241 -94.63566 7552 ft 221 kts 336°
2026-05-05 12:36 29.66709 -94.64152 7474 ft 224 kts 336°
2026-05-05 12:36 29.68199 -94.64747 7466 ft 229 kts 336°
2026-05-05 12:37 29.69699 -94.65346 7428 ft 227 kts 336°
2026-05-05 12:37 29.71191 -94.65942 7375 ft 227 kts 336°
2026-05-05 12:37 29.72684 -94.66539 7325 ft 226 kts 336°
2026-05-05 12:37 29.74171 -94.67134 7263 ft 226 kts 336°
2026-05-05 12:38 29.75658 -94.67730 7238 ft 226 kts 336°
2026-05-05 12:38 29.77142 -94.68324 7187 ft 226 kts 336°
2026-05-05 12:38 29.78634 -94.68923 7089 ft 228 kts 336°
2026-05-05 12:38 29.80125 -94.69521 7013 ft 226 kts 336°
2026-05-05 12:39 29.81601 -94.70113 7001 ft 225 kts 335°
2026-05-05 12:39 29.83086 -94.70709 7007 ft 227 kts 336°
2026-05-05 12:39 29.84582 -94.71310 7008 ft 227 kts 336°
2026-05-05 12:39 29.86070 -94.71908 6987 ft 226 kts 336°
2026-05-05 12:40 29.87550 -94.72502 6987 ft 225 kts 336°
2026-05-05 12:40 29.89016 -94.73091 7005 ft 222 kts 336°
2026-05-05 12:40 29.90472 -94.73676 6993 ft 220 kts 336°
2026-05-05 12:40 29.91916 -94.74257 6989 ft 219 kts 335°
2026-05-05 12:41 29.93351 -94.74834 6990 ft 218 kts 335°
2026-05-05 12:41 29.94784 -94.75411 6987 ft 218 kts 335°
2026-05-05 12:41 29.96214 -94.75986 6990 ft 218 kts 335°
2026-05-05 12:41 29.97484 -94.76840 6971 ft 208 kts 304°
2026-05-05 12:42 29.98142 -94.78283 7002 ft 206 kts 288°
2026-05-05 12:42 29.98649 -94.79848 7005 ft 209 kts 287°
2026-05-05 12:42 29.99141 -94.81422 6987 ft 208 kts 285°
2026-05-05 12:42 29.99331 -94.83039 6996 ft 202 kts 266°
2026-05-05 12:43 29.99304 -94.84658 6986 ft 202 kts 268°
2026-05-05 12:43 29.99300 -94.86273 6993 ft 201 kts 268°
2026-05-05 12:43 29.99301 -94.87891 6987 ft 201 kts 269°
2026-05-05 12:43 29.99303 -94.89503 6989 ft 201 kts 269°
2026-05-05 12:44 29.99311 -94.91119 6987 ft 202 kts 269°
2026-05-05 12:44 29.99327 -94.92737 6991 ft 202 kts 269°
2026-05-05 12:44 29.99336 -94.94355 6986 ft 201 kts 269°
2026-05-05 12:44 29.99354 -94.95966 6982 ft 200 kts 270°
2026-05-05 12:45 29.99380 -94.97565 6769 ft 205 kts 269°
2026-05-05 12:45 29.99390 -94.99197 6493 ft 202 kts 268°
2026-05-05 12:45 29.99392 -95.00746 6218 ft 198 kts 268°
2026-05-05 12:45 29.99390 -95.02327 5885 ft 196 kts 267°
2026-05-05 12:46 29.99386 -95.03903 5518 ft 196 kts 266°
2026-05-05 12:46 29.99381 -95.05477 5164 ft 196 kts 265°
2026-05-05 12:46 29.99377 -95.07048 4817 ft 196 kts 265°
2026-05-05 12:46 29.99374 -95.08617 4457 ft 196 kts 264°
2026-05-05 12:47 29.99370 -95.10187 4086 ft 196 kts 264°
2026-05-05 12:47 29.99367 -95.11752 3709 ft 193 kts 263°
2026-05-05 12:47 29.99364 -95.13282 3295 ft 188 kts 263°
2026-05-05 12:47 29.99364 -95.14723 3064 ft 171 kts 262°
2026-05-05 12:48 29.99363 -95.16049 2815 ft 159 kts 261°
2026-05-05 12:48 29.99361 -95.17278 2626 ft 148 kts 260°
2026-05-05 12:48 29.99357 -95.18449 2424 ft 144 kts 260°
2026-05-05 12:48 29.99354 -95.19599 2245 ft 144 kts 259°
2026-05-05 12:49 29.99350 -95.20768 2059 ft 147 kts 259°
2026-05-05 12:49 29.99349 -95.21947 1864 ft 147 kts 259°
2026-05-05 12:49 29.99348 -95.23123 1675 ft 147 kts 260°
2026-05-05 12:49 29.99347 -95.24305 1474 ft 147 kts 260°
2026-05-05 12:50 29.99345 -95.25493 1288 ft 149 kts 262°
2026-05-05 12:50 29.99344 -95.26692 1089 ft 149 kts 262°
2026-05-05 12:50 29.99342 -95.27945 884 ft 159 kts 264°
2026-05-05 12:50 29.99344 -95.29214 679 ft 159 kts 265°
2026-05-05 12:51 29.99347 -95.30489 511 ft 158 kts 269°
2026-05-05 12:51 29.99354 -95.31751 335 ft 157 kts 266°
2026-05-05 12:51 29.99342 -95.33013 124 ft 152 kts 268°
2026-05-05 12:51 29.99343 -95.34117 104 ft 118 kts 270°
2026-05-05 12:52 29.99341 -95.34895 106 ft 76 kts 269°
2026-05-05 12:52 29.99340 -95.35218 107 ft 20 kts 263°
2026-05-05 12:52 29.99279 -95.35276 107 ft 11 kts 186°
2026-05-05 12:52 29.99222 -95.35277 106 ft 0 kts 180°
2026-05-05 12:54 29.99213 -95.35277 105 ft 4 kts 180°
2026-05-05 12:54 29.99172 -95.35277 106 ft 8 kts 180°
2026-05-05 12:54 29.99107 -95.35262 106 ft 11 kts 140°
2026-05-05 12:55 29.99091 -95.35165 106 ft 14 kts 90°
2026-05-05 12:55 29.99090 -95.35038 106 ft 17 kts 91°
2026-05-05 12:55 29.99085 -95.34886 106 ft 20 kts 92°
2026-05-05 12:55 29.99084 -95.34733 106 ft 18 kts 90°
2026-05-05 12:56 29.99085 -95.34577 106 ft 21 kts 90°
2026-05-05 12:56 29.99085 -95.34403 106 ft 13 kts 90°
2026-05-05 12:56 29.99085 -95.34282 106 ft 17 kts 90°
2026-05-05 12:56 29.99087 -95.34136 106 ft 20 kts 89°
2026-05-05 12:57 29.99088 -95.34019 106 ft 15 kts 89°
2026-05-05 12:57 29.99088 -95.33885 106 ft 18 kts 90°
2026-05-05 12:57 29.99089 -95.33729 106 ft 16 kts 90°
2026-05-05 12:57 29.99052 -95.33651 106 ft 13 kts 169°
2026-05-05 12:58 29.98961 -95.33648 106 ft 11 kts 173°
2026-05-05 12:58 29.98920 -95.33576 106 ft 13 kts 91°
2026-05-05 12:58 29.98920 -95.33562 106 ft 0 kts 91°
2026-05-05 12:59 29.98920 -95.33559 106 ft 2 kts 94°
2026-05-05 12:59 29.98891 -95.33547 106 ft 7 kts 178°
2026-05-05 12:59 29.98844 -95.33547 106 ft 7 kts 180°
2026-05-05 13:00 29.98825 -95.33547 106 ft 0 kts 181°